Previsão horária em Plomiany

Hoje, 1 Março, Segunda-feira

Tempo Temperatura Precipitação Vento Pressão Humidade
00:00 -1°C° 0 mm 3 m/s 765 mmHg 95%
01:00 -1°C° 0 mm 2 m/s 765 mmHg 97%
02:00 -1°C° 0 mm 2 m/s 765 mmHg 96%
03:00 -1°C° 0 mm 2 m/s 765 mmHg 96%
04:00 -1°C° 0 mm 2 m/s 765 mmHg 96%
05:00 -1°C° 0 mm 2 m/s 766 mmHg 96%
06:00 -1°C° 0 mm 2 m/s 766 mmHg 95%
07:00 -1°C° 0 mm 2 m/s 766 mmHg 99%
08:00 +2°C° 0 mm 2 m/s 766 mmHg 93%
09:00 +3°C° 0 mm 2 m/s 766 mmHg 86%
10:00 +4°C° 0 mm 2 m/s 766 mmHg 80%
11:00 +5°C° 0 mm 2 m/s 766 mmHg 77%
12:00 +5°C° 0 mm 3 m/s 766 mmHg 73%
13:00 +5°C° 0 mm 3 m/s 767 mmHg 80%
14:00 +5°C° 0 mm 3 m/s 766 mmHg 80%
15:00 +5°C° 0 mm 3 m/s 766 mmHg 80%
16:00 +5°C° 0 mm 3 m/s 766 mmHg 79%
17:00 +4°C° 0 mm 3 m/s 766 mmHg 84%
18:00 +3°C° 0 mm 3 m/s 766 mmHg 88%
19:00 +2°C° 0 mm 3 m/s 766 mmHg 92%
20:00 +2°C° 0 mm 3 m/s 766 mmHg 92%
21:00 +2°C° 0 mm 3 m/s 765 mmHg 93%
22:00 0°C° 0 mm 4 m/s 765 mmHg 93%
23:00 0°C° 0 mm 4 m/s 765 mmHg 93%

Amanhã, 2 Março, Terça-feira

Tempo Temperatura Precipitação Vento Pressão Humidade
00:00 0°C° 0 mm 4 m/s 765 mmHg 93%
01:00 0°C° 0 mm 4 m/s 765 mmHg 93%
02:00 0°C° 0 mm 4 m/s 765 mmHg 94%
03:00 0°C° 0 mm 4 m/s 765 mmHg 94%
04:00 -1°C° 0 mm 4 m/s 764 mmHg 94%
05:00 -1°C° 0 mm 4 m/s 764 mmHg 94%
06:00 -1°C° 0 mm 4 m/s 764 mmHg 94%
07:00 -1°C° 0 mm 4 m/s 764 mmHg 94%
08:00 +1°C° 0 mm 4 m/s 764 mmHg 88%
09:00 +3°C° 0 mm 4 m/s 764 mmHg 82%
10:00 +5°C° 0 mm 5 m/s 764 mmHg 76%
11:00 +6°C° 0 mm 5 m/s 764 mmHg 71%
12:00 +7°C° 0 mm 5 m/s 764 mmHg 65%
13:00 +8°C° 0 mm 5 m/s 764 mmHg 60%
14:00 +8°C° 0 mm 4 m/s 764 mmHg 60%
15:00 +8°C° 0 mm 4 m/s 764 mmHg 61%
16:00 +9°C° 0 mm 3 m/s 763 mmHg 61%
17:00 +8°C° 0 mm 3 m/s 764 mmHg 67%
18:00 +5°C° 0 mm 3 m/s 764 mmHg 73%
19:00 +5°C° 0 mm 2 m/s 764 mmHg 79%
20:00 +4°C° 0 mm 2 m/s 764 mmHg 82%
21:00 +4°C° 0 mm 2 m/s 764 mmHg 85%
22:00 +3°C° 0 mm 2 m/s 765 mmHg 88%
23:00 +4°C° 0 mm 1 m/s 765 mmHg 89%

Depois de amanhã, 3 Março, Quarta-feira

Tempo Temperatura Precipitação Vento Pressão Humidade
00:00 +3°C° 0 mm 1 m/s 765 mmHg 90%
01:00 +2°C° 0 mm 0 m/s 765 mmHg 91%
02:00 +1°C° 0 mm 0 m/s 764 mmHg 91%
03:00 +1°C° 0 mm 0 m/s 764 mmHg 91%
04:00 +1°C° 0 mm 0 m/s 764 mmHg 91%
05:00 +3°C° 0 mm 1 m/s 764 mmHg 91%
06:00 +3°C° 0 mm 1 m/s 764 mmHg 91%
07:00 +2°C° 0 mm 1 m/s 764 mmHg 91%
08:00 +4°C° 0 mm 1 m/s 763 mmHg 86%
09:00 +5°C° 0 mm 1 m/s 763 mmHg 82%
10:00 +6°C° 0 mm 2 m/s 763 mmHg 77%
11:00 +7°C° 0 mm 2 m/s 762 mmHg 72%
12:00 +8°C° 0 mm 2 m/s 762 mmHg 66%
13:00 +9°C° 0 mm 2 m/s 761 mmHg 61%
14:00 +9°C° 0 mm 2 m/s 760 mmHg 61%
15:00 +9°C° 0 mm 2 m/s 760 mmHg 61%
16:00 +9°C° 0 mm 2 m/s 759 mmHg 61%
17:00 +8°C° 0 mm 2 m/s 758 mmHg 64%
18:00 +7°C° 0 mm 2 m/s 758 mmHg 68%
19:00 +5°C° 0 mm 2 m/s 757 mmHg 72%
20:00 +5°C° 0 mm 2 m/s 757 mmHg 74%
21:00 +4°C° 0 mm 3 m/s 756 mmHg 76%
22:00 +3°C° 0 mm 3 m/s 755 mmHg 78%
23:00 +3°C° 0 mm 3 m/s 755 mmHg 81%

4 Março, Quinta-feira

Tempo Temperatura Precipitação Vento Pressão Humidade
00:00 +3°C° 0 mm 3 m/s 754 mmHg 84%
01:00 +2°C° 0 mm 3 m/s 754 mmHg 87%
02:00 +2°C° 0 mm 3 m/s 753 mmHg 88%
03:00 +1°C° 0 mm 4 m/s 752 mmHg 90%
04:00 +1°C° 0 mm 4 m/s 751 mmHg 91%
05:00 +1°C° 0 mm 4 m/s 751 mmHg 92%
06:00 +1°C° 0 mm 4 m/s 751 mmHg 93%
07:00 +1°C° 0 mm 4 m/s 750 mmHg 94%
08:00 +3°C° 0 mm 4 m/s 750 mmHg 90%
09:00 +3°C° 0 mm 5 m/s 750 mmHg 85%
10:00 +5°C° 0 mm 5 m/s 750 mmHg 81%
11:00 +6°C° 0 mm 5 m/s 750 mmHg 78%
12:00 +6°C° 0 mm 5 m/s 749 mmHg 76%
13:00 +7°C° 0 mm 5 m/s 749 mmHg 73%
14:00 +6°C° 0 mm 5 m/s 749 mmHg 74%
15:00 +6°C° 0 mm 4 m/s 748 mmHg 75%
16:00 +5°C° 0 mm 4 m/s 748 mmHg 76%
17:00 +4°C° 0 mm 4 m/s 748 mmHg 78%
18:00 +4°C° 0 mm 3 m/s 748 mmHg 79%
19:00 +3°C° 0 mm 3 m/s 748 mmHg 81%
20:00 +2°C° 0 mm 3 m/s 748 mmHg 83%
21:00 +2°C° 0 mm 3 m/s 748 mmHg 84%
22:00 +3°C° 0 mm 2 m/s 748 mmHg 86%
23:00 +1°C° 0 mm 3 m/s 748 mmHg 87%

5 Março, Sexta-feira

Tempo Temperatura Precipitação Vento Pressão Humidade
00:00 -1°C° 0 mm 4 m/s 748 mmHg 88%
01:00 -2°C° 0 mm 4 m/s 748 mmHg 89%
02:00 -2°C° 0 mm 4 m/s 748 mmHg 87%
03:00 -2°C° 0 mm 4 m/s 748 mmHg 86%
04:00 -3°C° 0 mm 4 m/s 749 mmHg 85%
05:00 -4°C° 0.1 mm 5 m/s 749 mmHg 82%
06:00 -4°C° 0.1 mm 5 m/s 750 mmHg 79%
07:00 -4°C° 0.1 mm 5 m/s 750 mmHg 75%
08:00 -2°C° 0 mm 5 m/s 751 mmHg 68%
09:00 -1°C° 0 mm 5 m/s 751 mmHg 62%
10:00 -1°C° 0 mm 5 m/s 752 mmHg 55%
11:00 0°C° 0 mm 5 m/s 752 mmHg 53%
12:00 0°C° 0 mm 5 m/s 752 mmHg 51%
13:00 +1°C° 0 mm 4 m/s 753 mmHg 49%
14:00 +1°C° 0 mm 4 m/s 753 mmHg 48%
15:00 +1°C° 0 mm 4 m/s 753 mmHg 47%
16:00 +1°C° 0 mm 4 m/s 754 mmHg 47%
17:00 0°C° 0.1 mm 4 m/s 754 mmHg 53%
18:00 0°C° 0.1 mm 3 m/s 755 mmHg 59%
19:00 -1°C° 0.1 mm 3 m/s 755 mmHg 65%
20:00 -2°C° 0 mm 3 m/s 756 mmHg 68%
21:00 -2°C° 0 mm 3 m/s 757 mmHg 70%
22:00 -4°C° 0 mm 3 m/s 757 mmHg 72%
23:00 -4°C° 0 mm 3 m/s 758 mmHg 73%

6 Março, Sábado

Tempo Temperatura Precipitação Vento Pressão Humidade
00:00 -4°C° 0 mm 3 m/s 758 mmHg 73%
01:00 -4°C° 0 mm 3 m/s 758 mmHg 74%
02:00 -4°C° 0 mm 3 m/s 759 mmHg 71%
03:00 -4°C° 0 mm 3 m/s 759 mmHg 68%
04:00 -4°C° 0 mm 3 m/s 760 mmHg 64%
05:00 -4°C° 0 mm 3 m/s 760 mmHg 64%
06:00 -4°C° 0 mm 3 m/s 761 mmHg 64%
07:00 -4°C° 0 mm 3 m/s 761 mmHg 64%
08:00 -2°C° 0 mm 3 m/s 761 mmHg 59%
09:00 -1°C° 0 mm 3 m/s 762 mmHg 53%
10:00 0°C° 0 mm 3 m/s 762 mmHg 47%
11:00 +1°C° 0 mm 3 m/s 762 mmHg 44%
12:00 0°C° 0 mm 4 m/s 763 mmHg 40%
13:00 +1°C° 0 mm 4 m/s 763 mmHg 37%
14:00 0°C° 0 mm 4 m/s 763 mmHg 38%
15:00 0°C° 0 mm 4 m/s 763 mmHg 40%
16:00 0°C° 0 mm 4 m/s 763 mmHg 41%
17:00 0°C° 0 mm 3 m/s 763 mmHg 46%
18:00 -1°C° 0 mm 3 m/s 763 mmHg 50%
19:00 -2°C° 0 mm 2 m/s 764 mmHg 55%
20:00 -3°C° 0 mm 2 m/s 764 mmHg 57%
21:00 -3°C° 0 mm 2 m/s 764 mmHg 59%
22:00 -3°C° 0 mm 2 m/s 764 mmHg 61%
23:00 -4°C° 0 mm 3 m/s 764 mmHg 60%
Mostrar mais

Necessitamos do seu Consentimento

A Meteoprog e os seus Fornecedores de Serviços podem armazenar e aceder a dados pessoais como cookies, identificadores do dispositivo ou outras tecnologias semelhantes existentes no seu dispositivo e processar estes dados para personalizar conteúdos e anúncios, assim como funcionalidades nas redes sociais e análise de tráfego.

  • Armazenar e/ou aceder a informações no seu dispositivo

    Os cookies, identificadores do dispositivo ou outras informações podem ser armazenados ou acedidos no seu dispositivo, para os fins acima indicados.

  • Anúncios e conteúdos personalizados, medição de anúncios e conteúdos, dados sobre o público-alvo e desenvolvimento de produtos

    Os anúncios e os conteúdos podem ser personalizados com base num perfil. Podem ser adicionados dados adicionais para uma maior personalização dos anúncios e dos conteúdos. A eficácia dos anúncios e dos conteúdos pode ser medida. Podem ser obtidas informações sobre o público que visualizou os anúncios e os conteúdos. Estes dados podem ser usados para desenvolver ou melhorar sistemas, softwares ou a experiência do utilizador.

Ao clicar em "Eu concordo”, permitirá o uso de cookies, identificadores do dispositivo e web beacons mencionados ou outras tecnologias semelhantes. As configurações do navegador do seu dispositivo podem ser alteradas.

Para certos fins, podem ser invocados interesses legítimos ao invés de consentimento. Pode ler mais informação sobre este assunto na nossa Política de Privacidade e Cookies.